Voltar ao catálogo

SL-12 R/B

AUX MOTOR

AtivoUNKNOWN
NORAD 4789·ROCKET BODY·🇷🇺 Russia

Lançado Dec 2, 1970 de Baikonur Cosmodrome

Loading…

Próximas Passagens

TLE

Source: Space-Track
1 04789U 70103B   26229.82781501 -.00000039  00000-0 -46778-3 0  9991
2 04789  51.5976  68.3781 1802275 289.9392  62.8384  9.06814745845285

Acompanhe SL-12 R/B em tempo real com AllMySat

Download on the App Store